Date,TemperatureHighF,TemperatureAvgF,TemperatureLowF,DewpointHighF,DewpointAvgF,DewpointLowF,HumidityHigh,HumidityAvg,HumidityLow,PressureMaxIn,PressureMinIn,WindSpeedMaxMPH,WindSpeedAvgMPH,GustSpeedMaxMPH,PrecipitationSumIn
2013-11-1,46.8,42.2,38.2,46.3,40.4,36.6,98,93,87,29.73,29.12,6,3,16,0.30
2013-11-2,41.3,35.0,26.1,36.1,32.3,25.1,96,90,74,30.19,29.74,7,2,15,0.01
2013-11-3,44.0,35.1,22.8,38.2,31.1,21.6,97,86,67,30.33,30.19,7,2,12,0.01
2013-11-4,47.5,45.1,42.7,43.2,40.8,37.9,93,85,79,30.25,30.00,11,6,18,0.00
2013-11-5,51.5,41.4,29.7,43.1,36.7,28.7,97,84,55,30.24,29.96,5,1,10,0.47
2013-11-6,37.8,34.6,31.6,36.5,31.5,25.6,96,89,77,30.06,29.80,8,5,24,0.26
2013-11-7,35.5,32.3,29.2,29.6,27.1,25.2,86,81,74,30.15,30.06,5,3,9,0.00
2013-11-8,41.0,34.5,26.9,35.5,26.4,21.9,91,73,50,30.23,29.85,6,3,11,0.03
2013-11-9,40.8,38.1,36.3,39.1,35.2,31.8,96,89,80,29.88,29.63,8,4,16,0.30
2013-11-10,38.9,35.7,29.5,32.7,30.2,26.9,91,81,67,30.23,29.89,8,4,11,0.00
2013-11-11,35.8,26.7,21.1,32.0,19.0,13.1,93,73,55,30.55,30.00,11,6,23,0.01
2013-11-12,29.0,23.2,19.6,16.7,12.7,7.0,80,64,43,30.65,30.44,7,3,10,0.00
2013-11-13,47.5,31.9,15.9,30.5,21.6,10.3,81,66,51,30.44,29.85,9,4,17,0.00
2013-11-14,39.1,32.5,26.7,32.3,28.0,23.7,94,84,72,29.86,29.78,4,1,5,0.00
2013-11-15,53.7,34.3,22.8,38.8,29.9,21.3,95,85,50,29.88,29.81,4,1,6,0.00
2013-11-16,50.9,40.5,26.6,49.8,39.0,25.4,97,94,89,29.87,29.38,7,3,12,0.55
2013-11-17,53.5,48.0,37.4,52.7,46.0,31.5,97,93,79,29.40,29.13,10,4,21,0.03
2013-11-18,37.2,31.1,26.6,31.3,22.9,18.1,80,71,64,30.21,29.37,12,7,20,0.00
2013-11-19,33.6,27.5,16.8,27.8,20.0,13.7,92,74,55,30.38,30.22,6,3,9,0.00
2013-11-20,39.4,35.6,31.3,32.7,31.2,27.9,95,84,73,30.25,30.14,10,4,14,0.02
2013-11-21,37.6,34.7,28.9,35.4,33.1,25.6,96,94,87,30.32,30.12,7,2,10,0.03
2013-11-22,30.9,26.3,19.5,25.3,19.6,12.1,91,76,56,30.47,30.32,9,5,14,0.01
2013-11-23,19.5,13.1,9.6,13.8,4.8,0.5,85,70,53,30.67,30.39,11,6,17,0.00
2013-11-24,23.7,16.5,11.8,9.9,5.4,0.4,84,62,44,30.65,30.05,8,4,13,0.00
2013-11-25,34.5,30.2,23.8,27.1,21.6,10.0,82,70,55,30.04,29.83,7,4,14,0.00
2013-11-26,31.6,20.8,10.8,26.1,13.6,4.4,84,74,53,30.20,29.89,9,4,13,0.00
2013-11-27,25.5,17.8,11.3,17.6,13.0,7.6,90,81,58,30.26,30.17,8,3,14,0.00
2013-11-28,24.8,16.8,5.3,19.7,13.9,2.5,92,88,78,30.51,30.21,3,0,4,0.03
2013-11-29,26.5,16.6,4.2,20.3,12.3,1.4,91,83,73,30.65,30.36,5,2,9,0.00
2013-11-30,33.5,29.0,24.3,27.3,23.8,18.7,85,81,72,30.36,30.04,4,1,7,0.00